Regional Weather Roundup
Issued by NWS

Home | Current Version | Previous Version | Text Only | Print | Product List | Glossary Off
Versions: 1 2 3 4 5 6 7 8 9 10 11 12 13 14 15 16 17 18 19 20 21 22 23 24 25 26 27 28 29 30 31 32 33 34 35 36 37 38 39 40 41 42 43 44 45 46 47 48 49 50

000
ASUS43 KLMK 170802
RWRKY
KENTUCKY REGIONAL WEATHER ROUNDUP
NATIONAL WEATHER SERVICE LOUISVILLE KY
400 AM EDT THU AUG 17 2017

NOTE "FAIR" INDICATES FEW OR NO CLOUDS BELOW 12,000 FEET
WITH NO SIGNIFICANT WEATHER AND/OR OBSTRUCTIONS TO VISIBILITY.

KYZ001>023-026-027-061>063-070>075-170900-
WESTERN AND SOUTH CENTRAL KENTUCKY

CITY           SKY/WX    TMP DP  RH WIND       PRES   REMARKS
PADUCAH        CLEAR     78  73  84 S7        29.91S
HENDERSON      NOT AVBL
OWENSBORO      CLEAR     75  73  93 S6        29.92F
HOPKINSVILLE   CLEAR     76  75  97 S6        29.95S
BOWLING GREEN  CLEAR     76  74  93 S3        29.96F
GLASGOW        CLEAR     75  74  97 S5        29.97F
$$

KYZ024-025-028>034-038-045-046-053-170900-
NORTH CENTRAL KENTUCKY

CITY           SKY/WX    TMP DP  RH WIND       PRES   REMARKS
LOUISVILLE/SDF PTCLDY    79  73  82 S8        29.93R
LOUISVILLE/LOU CLEAR     77  74  90 S8        29.94S
FORT KNOX      CLEAR     74  74  99 SW3       29.94R
$$

KYZ035>037-039>044-047>052-055>060-089>105-170900-
NORTHEAST KENTUCKY

CITY           SKY/WX    TMP DP  RH WIND       PRES   REMARKS
LEXINGTON      CLEAR     77  71  82 S9        29.97F
COVINGTON      PTCLDY    74  72  93 S7        29.94S
FRANKFORT      CLEAR     75  71  87 S6        29.95S
$$

KYZ054-064>069-076>088-106>120-170900-
SOUTHEAST KENTUCKY

CITY           SKY/WX    TMP DP  RH WIND       PRES   REMARKS
JACKSON        CLEAR     72  70  93 CALM      30.02F
LONDON         LGT RAIN  74  72  93 CALM      30.02F
SOMERSET       NOT AVBL
MIDDLESBORO    CLOUDY    71  71 100 CALM      30.05F FOG
MONTICELLO     SUNNY     70  70 100 CALM      30.02S
$$




USA.gov is the U.S. government's official web portal to all federal, state and local government web resources and services.